EW7558 Weather Reports


time (UTC)temp
F
wind
direction
speed
knots
gust
knots
rain 1hr
in
rain 24hr
in
rain mn
in
humidity
%
barometer
mb
20260510021532 53 84 0.0 0.9 0.00 0.08 0.08 88 1012.8
20260510020031 54 84 0.0 0.0 0.00 0.08 0.08 87 1012.8
20260510014530 53 84 0.0 0.0 0.00 0.08 0.08 86 1012.5
20260510013029 54 84 0.0 0.0 0.00 0.08 0.08 85 1012.5
20260510011529 55 84 0.0 0.0 0.00 0.08 0.08 83 1012.3
20260510010029 56 84 0.0 0.0 0.00 0.08 0.08 83 1012.1
20260510004530 57 84 0.0 0.9 0.00 0.08 0.08 81 1012.0
20260510003028 58 96 0.0 1.7 0.00 0.08 0.08 80 1011.9
20260510001627 59 106 0.0 1.7 0.00 0.08 0.08 79 1011.7
20260510000033 59 88 0.0 1.7 0.00 0.08 0.08 77 1011.5
20260509234538 60 86 0.0 1.7 0.00 0.08 0.08 76 1011.4
20260509233025 61 77 0.0 3.5 0.00 0.08 0.08 74 1011.4
20260509231525 62 77 0.0 1.7 0.00 0.08 0.08 73 1011.3
20260509230025 62 91 0.0 2.6 0.00 0.08 0.08 72 1011.3
20260509224533 64 97 0.0 1.7 0.00 0.08 0.08 71 1011.5
20260509223023 63 101 0.0 1.7 0.00 0.08 0.08 71 1011.5
20260509221522 63 90 0.0 1.7 0.00 0.08 0.08 70 1011.5
20260509220020 63 86 0.9 2.6 0.00 0.08 0.08 71 1011.7
20260509214518 63 98 0.0 1.7 0.00 0.08 0.08 64 1011.6
20260509213017 63 98 0.0 2.6 0.00 0.08 0.08 64 1011.8
20260509211516 64 157 0.0 1.7 0.00 0.08 0.08 64 1012.0
20260509210015 63 253 0.0 1.7 0.00 0.08 0.08 65 1012.2
20260509204514 62 74 0.0 0.9 0.00 0.08 0.08 66 1012.1
20260509203013 62 74 0.9 2.6 0.00 0.08 0.08 66 1011.9
20260509201515 63 77 0.9 1.7 0.00 0.08 0.08 65 1011.9
20260509200012 63 102 0.0 1.7 0.00 0.08 0.08 67 1012.1
20260509194510 63 101 0.0 2.6 0.00 0.08 0.08 65 1012.2
20260509193012 63 236 0.0 2.6 0.00 0.08 0.08 64 1012.3
20260509191507 64 85 0.9 2.6 0.00 0.08 0.08 67 1012.5
20260509190010 64 252 0.9 6.1 0.00 0.08 0.08 67 1012.6
20260509184502 63 86 0.9 3.5 0.00 0.08 0.08 70 1012.9
20260509183111 61 280 0.9 4.3 0.00 0.08 0.08 74 1013.1
20260509181610 60 84 0.0 7.8 0.00 0.08 0.08 78 1013.3
20260509180113 58 79 0.0 2.6 0.00 0.08 0.08 80 1013.6
20260509174554 57 79 1.7 4.3 0.00 0.08 0.08 81 1013.7
20260509173107 57 78 0.0 1.7 0.00 0.08 0.08 81 1013.6
20260509171553 57 96 0.0 1.7 0.00 0.08 0.08 82 1013.8
20260509170054 57 80 0.0 0.9 0.00 0.08 0.08 80 1013.6
20260509164550 57 80 0.0 0.9 0.00 0.08 0.08 81 1013.8
20260509163048 57 108 0.0 1.7 0.00 0.08 0.08 82 1014.2
20260509161559 57 299 0.0 2.6 0.01 0.08 0.08 80 1014.3
20260509160048 56 87 0.0 1.7 0.04 0.08 0.08 85 1014.1
20260509154546 55 89 0.0 0.9 0.07 0.08 0.08 86 1013.9
20260509153054 55 257 0.0 0.9 0.08 0.08 0.08 85 1013.7
20260509151551 55 259 0.0 0.0 0.07 0.07 0.07 81 1014.1
20260509150043 56 259 0.0 0.0 0.04 0.04 0.04 77 1014.5
20260509144542 56 259 0.0 0.0 0.01 0.01 0.01 75 1014.4
20260509143042 57 259 0.0 0.0 0.00 0.00 0.00 75 1014.6
20260509141544 57 259 0.0 0.9 0.00 0.00 0.00 73 1014.5
20260509140039 57 259 0.0 0.9 0.00 0.00 0.00 69 1014.3
20260509134539 57 228 0.0 0.9 0.00 0.00 0.00 67 1013.9
20260509133042 56 260 0.0 0.9 0.00 0.00 0.00 69 1013.9
20260509131530 56 10 0.0 1.7 0.00 0.00 0.00 68 1013.7
20260509130028 55 65 0.0 2.6 0.00 0.00 0.00 68 1013.7
20260509124526 55 258 0.0 0.9 0.00 0.00 0.00 70 1013.6
20260509123029 55 258 0.0 0.0 0.00 0.00 0.00 73 1013.7
20260509121525 54 258 0.0 0.0 0.00 0.00 0.00 73 1014.0
20260509120024 54 258 0.0 0.0 0.00 0.00 0.00 73 1013.7
20260509114521 53 258 0.0 0.9 0.00 0.00 0.00 77 1013.7
20260509113020 52 180 0.0 0.9 0.00 0.00 0.00 79 1013.2
20260509111519 52 87 0.0 0.0 0.00 0.00 0.00 79 1013.3
20260509110018 52 87 0.0 0.0 0.00 0.00 0.00 81 1013.2
20260509104518 51 87 0.0 0.0 0.00 0.00 0.00 81 1013.2
20260509103017 51 87 0.0 0.9 0.00 0.00 0.00 80 1013.0
20260509101527 51 87 0.0 0.0 0.00 0.00 0.00 80 1012.9
20260509100015 51 87 0.0 0.0 0.00 0.00 0.00 82 1012.9
20260509094518 51 87 0.0 0.0 0.00 0.00 0.00 83 1012.9
20260509093013 51 87 0.0 0.0 0.00 0.00 0.00 82 1012.9
20260509091516 51 87 0.0 0.0 0.00 0.00 0.00 81 1013.0
20260509090011 51 87 0.0 0.0 0.00 0.00 0.00 81 1013.2
20260509084509 51 87 0.0 0.0 0.00 0.00 0.00 80 1013.4
20260509083008 51 87 0.0 0.0 0.00 0.00 0.00 81 1013.4
20260509081516 51 87 0.0 0.0 0.00 0.00 0.00 80 1013.5
20260509080006 51 87 0.0 0.0 0.00 0.00 0.00 80 1013.6
20260509074506 50 87 0.0 0.0 0.00 0.00 0.00 79 1013.5
20260509073013 50 87 0.0 0.0 0.00 0.00 0.00 78 1013.5
20260509071505 51 87 0.0 0.0 0.00 0.00 0.00 78 1013.6
20260509070006 51 87 0.0 0.0 0.00 0.00 0.00 77 1013.6
20260509064501 51 87 0.0 0.0 0.00 0.00 0.00 75 1013.6
20260509063111 52 87 0.0 0.0 0.00 0.00 0.00 74 1013.7
20260509061616 53 87 0.0 0.9 0.00 0.00 0.00 71 1013.7
20260509060107 54 87 0.0 3.5 0.00 0.00 0.00 70 1013.6
20260509054554 54 72 0.9 2.6 0.00 0.00 0.00 70 1013.7
20260509053052 53 95 0.0 1.7 0.00 0.00 0.00 73 1014.0
20260509051550 52 269 0.0 0.9 0.00 0.00 0.00 76 1014.4
20260509050049 52 246 0.0 0.9 0.00 0.00 0.00 74 1014.4
20260509044546 52 246 0.0 0.0 0.00 0.00 0.00 74 1014.4
20260509043043 53 246 0.0 0.9 0.00 0.00 0.00 73 1014.5
20260509041541 54 246 0.0 0.9 0.00 0.00 0.00 70 1014.5
20260509040038 54 246 0.0 0.0 0.00 0.00 0.00 67 1014.6
20260509034538 55 246 0.0 0.0 0.00 0.00 0.00 65 1014.6
20260509033037 55 246 0.0 0.9 0.00 0.00 0.00 66 1014.7
20260509031537 56 241 0.0 0.9 0.00 0.00 0.00 68 1014.8
20260509030041 56 60 0.0 0.0 0.00 0.00 0.00 66 1014.7
20260509024538 56 60 0.0 0.0 0.00 0.00 0.00 65 1015.0
20260509023034 57 60 0.0 0.9 0.00 0.00 0.00 62 1014.6